sat.trackr.live / text

‹ back to catalog

STARLINK-4345

NORAD 53049 · 2022-077G

PAYLOAD ACTIVE UNKNOWN

§ Identity

Operator
Country
US
Launch date
2022-07-11
Launch site
AFWTR
Launch vehicle
Mass (kg)
RCS (m²)

Purposes: comms

External: N2YO · Heavens-Above · Gunter

§ Orbital elements

Epoch: 2026-05-25T01:11:17.795328Z

Period
95.64 min
Inclination
97.4483°
Eccentricity
0.0001575
Mean motion
15.05657665 rev/d
Perigee alt
548.4 km
Apogee alt
550.6 km
Semi-major
6,927.6 km
B*
-7.8593e-5
RAAN
324.9674°
Arg perigee
88.6370°
Mean anomaly
271.5037°
Rev number
21,239

§ Raw data

STARLINK-43451 53049U 22077G   26145.04951152 -.00001193  00000+0 -78593-4 0  99952 53049  97.4483 324.9674 0001575  88.6370 271.5037 15.05657665212391

JSON: /api/v1/satellites/53049 · /tle

For live sub-satellite position, see the globe view (requires WebGL).

§ Visibility from observer

Set your observer location to see the next 7 days of passes ≥ 10°. The values pass through the URL so the page stays shareable.

No JS? Fill the form by hand. The geolocation button needs JavaScript.